Weather observations for the past three days for
Topeka, Forbes Field
Imperial (Metric)
Date Time (cdt) Wind (mph) Vis. (mi.) Weather Sky Cond. Temperature (ºF) Relative Humidity Wind Chill (°F) Heat Index (°F) Pressure Precipitation (in)
Air Dwpt 6 hour altimeter (in) sea level (mb) 1 hr 3 hr 6 hr
Max. Min.
12 23:53 S 12 10.00 Fair CLR 75.9 63 64% 78 29.86 1009.7
12 22:53 S 10 10.00 Fair CLR 77 63 62% 79 29.86 1010.1
12 21:53 S 13 10.00 Fair CLR 79 62.1 56% 80 29.84 1009.2
12 20:53 S 12 10.00 Fair CLR 80.1 64 58% 82 29.83 1008.9
12 19:53 S 12 10.00 Fair CLR 82.9 64 53% 84 29.83 1009.1
12 18:53 S 18 G 28 10.00 Fair CLR 86 63 88 84.9 46% 87 29.85 1009.6
12 17:53 S 14 G 22 10.00 Fair CLR 87.1 64 46% 88 29.86 1010.0
12 16:53 S 18 G 28 10.00 Fair CLR 88 63 43% 89 29.87 1010.5
12 15:53 S 16 G 29 10.00 Fair CLR 87.1 63 45% 88 29.88 1010.8
12 14:53 S 18 G 26 10.00 Fair CLR 87.1 62.1 43% 88 29.9 1011.4
12 13:53 S 21 G 32 10.00 Fair and Breezy CLR 86 60.1 42% 86 29.92 1012.0
12 12:53 S 16 G 28 10.00 Fair CLR 86 61 86 64 43% 86 29.94 1012.9
12 11:53 SW 15 10.00 Fair CLR 84 62.1 48% 85 29.96 1013.3
12 10:53 SW 18 G 26 10.00 Fair CLR 81 61 51% 82 29.97 1013.7
12 09:53 SW 16 10.00 Fair CLR 79 62.1 56% 80 29.98 1014.2
12 08:53 SW 14 10.00 Fair CLR 75 62.1 64% 77 29.98 1014.3
12 06:53 S 6 10.00 Fair CLR 64 60.1 66 61 87% 29.98 1014.1
12 05:53 S 6 10.00 Fair CLR 62.1 57.9 86% 29.97 1013.9
12 04:53 S 5 10.00 Fair CLR 63 59 87% 29.96 1013.6
12 03:53 S 6 10.00 Fair CLR 64 60.1 87% 29.95 1013.2
12 02:53 S 6 10.00 Fair CLR 64 60.1 87% 29.96 1013.5
12 01:53 S 5 10.00 Fair CLR 64.9 61 87% 29.96 1013.7
12 00:53 S 3 10.00 Fair CLR 66.9 61 82.9 66.9 81% 29.96 1013.7
11 23:53 S 7 10.00 Fair CLR 69.1 62.1 78% 29.96 1013.5
11 22:53 S 6 10.00 Fair CLR 69.1 62.1 78% 29.96 1013.5
11 21:53 S 5 10.00 Fair CLR 70 62.1 76% 29.94 1013.1
11 20:53 Calm 10.00 Fair CLR 75 63 66% 77 29.93 1012.7
11 19:53 S 6 10.00 Fair CLR 80.1 61 52% 81 29.93 1012.5
11 18:53 S 9 10.00 Fair CLR 82.9 61 84 80.1 48% 83 29.93 1012.6
11 17:53 S 8 10.00 Fair CLR 84 60.1 44% 84 29.94 1012.9
11 16:53 SW 12 10.00 Fair CLR 84 61 46% 84 29.95 1013.4
11 15:53 SW 12 10.00 A Few Clouds FEW120 82 60.1 47% 82 29.97 1013.9
11 14:53 SW 8 10.00 Fair CLR 84 60.1 44% 84 29.97 1014.2
11 13:53 SW 13 G 18 10.00 Fair CLR 81 60.1 49% 82 29.99 1014.6
11 12:53 SW 9 10.00 Fair CLR 80.1 57.9 81 61 47% 81 30.01 1015.3
11 11:53 SW 10 10.00 Fair CLR 80.1 57.9 47% 81 30 1015.2
11 10:53 SW 10 10.00 Fair CLR 77 55.9 48% 79 30.01 1015.3
11 09:53 S 13 10.00 Fair CLR 73.9 55.9 54% 30 1015.0
11 08:53 S 10 10.00 Fair CLR 70 55.9 61% 29.99 1014.9
11 07:53 S 6 10.00 Fair CLR 66 57 73% 29.99 1014.7
11 06:53 S 5 10.00 Fair CLR 61 55.9 62.1 57 84% 29.98 1014.3
11 05:53 S 5 10.00 Fair CLR 57 54 90% 29.99 1014.8
11 04:53 Calm 10.00 Fair CLR 57 54 90% 29.99 1014.6
11 03:53 Calm 10.00 Fair CLR 59 54 83% 29.97 1014.1
11 02:53 Calm 10.00 Fair CLR 59 55 87% 29.98 1014.3
11 01:53 Calm 10.00 Fair CLR 61 55 81% 29.99 1014.8
11 00:53 Calm 10.00 Fair CLR 60.1 57 80.1 59 90% 29.99 1014.6
10 23:53 Calm 10.00 Fair CLR 61 55.9 84% 29.98 1014.3
10 22:53 SE 3 10.00 Fair CLR 64.9 57 76% 29.97 1014.0
10 21:53 SE 3 10.00 Fair CLR 66 57 73% 29.95 1013.2
10 20:53 SE 3 10.00 Fair CLR 72 57.9 61% 29.93 1012.8
10 19:53 E 3 10.00 Fair CLR 77 53.1 43% 78 29.93 1012.7
10 18:53 NE 6 10.00 Fair CLR 80.1 51.1 82.9 78.1 37% 80 29.93 1012.8
10 17:53 Vrbl 6 10.00 Fair CLR 81 51.1 35% 80 29.95 1013.5
10 16:53 N 6 10.00 Fair CLR 82 51.1 34% 81 29.97 1014.1
10 15:53 Calm 10.00 Fair CLR 82 48 31% 81 29.99 1014.6
10 14:53 N 5 10.00 Fair CLR 82 50 33% 81 30 1015.0
10 13:53 E 3 10.00 Fair CLR 81 48.9 33% 80 30.02 1015.8
10 12:53 E 7 10.00 Fair CLR 78.1 48.9 79 57.9 36% 79 30.03 1016.3
10 11:53 Vrbl 7 10.00 Fair CLR 78.1 48.9 36% 79 30.05 1016.6
10 10:53 NE 8 10.00 Fair CLR 75.9 48.9 39% 78 30.05 1016.9
10 09:53 NE 8 10.00 Fair CLR 73 50 44% 30.07 1017.3
10 08:53 NE 6 10.00 Fair CLR 69.1 51.1 53% 30.08 1017.7
10 07:53 N 5 10.00 Fair CLR 64.9 55 70% 30.08 1017.7
10 06:53 N 5 10.00 Fair CLR 57.9 55 61 55.9 90% 30.07 1017.6
10 05:53 Calm 10.00 Fair CLR 57 53.1 87% 30.05 1016.9
10 04:53 Calm 10.00 Fair CLR 57 53.1 87% 30.03 1016.3
10 03:53 N 5 10.00 Fair CLR 57.9 55 90% 30.04 1016.5
10 02:53 N 10 G 17 10.00 Fair CLR 57.9 55 90% 30.03 1016.3
10 01:53 Calm 10.00 Fair CLR 60.1 57 90% 30.03 1016.1
10 00:53 Calm 10.00 Fair CLR 60.1 57 79 59 90% 30.03 1016.3
Date Time (cdt) Wind (mph) Vis. (mi.) Weather Sky Cond. Air Dwpt Max. Min. Relative Humidity Wind Chill (°F) Heat Index (°F) altimeter (in) sea level (mb) 1 hr 3 hr 6 hr
6 hour
Temperature (ºF) Pressure Precipitation (in)